RADUGA 28 [-]

Last updated on Jan. 28, 2020, 4:41 a.m. UTC

1 21821U 91087A   20027.87461691 -.00000349  00000-0  00000-0 0  9999
2 21821  14.9178 359.8616 0004771  47.0218 141.7600  1.00215975102939
UTC
Height (km)
Latitude
Longitude
Inclination
Orbital Period
UTC large
Height (km)
Speed (km/s)
/
Latitude / Longitude
Inclination (degrees)
Orbital Period (minutes)
Azimuth
Elevation
Range (km)
Doppler Factor
iOS Compass Heading
iOS Angle

Next 30 passes for location: Hong Kong

Rise time Rise Azimuth (degrees) Set time Set Azimuth (degrees) Duration Max altitude (degrees)

No matching passes for this satellites